Simultaneous Nadir Overpasses (SNOs) Predictions

Prediction of SNOs between GOES-17 and NOAA-19 Satellite Orbit:

Table of predicted SNOs for the next 14.0 days since TLE Epoch: 7/31/2020
Index Date Time (GOES-17) GOES-17 Lat,Lon NOAA-19 Lat,Lon Distance(km) Time Diff (sec)
1 08/02/2020 03:22:29 0.01,-137.19 -0.75,-140.35 361.05 80
2 08/03/2020 03:10:48 0.02,-137.19 -0.08,-137.49 35.33 80
3 08/04/2020 03:01:46 0.02,-137.19 0.59,-134.64 290.84 80
4 08/06/2020 15:20:05 -0.02,-137.20 0.56,-139.60 274.37 80
5 08/07/2020 15:11:04 -0.02,-137.20 -0.10,-136.74 51.56 80
6 08/08/2020 14:59:22 -0.02,-137.20 -0.76,-133.89 377.26 80
7 08/11/2020 03:17:40 0.02,-137.17 -0.37,-138.85 191.30 80
8 08/12/2020 03:08:39 0.02,-137.16 0.31,-135.99 133.87 80
9 08/13/2020 02:56:57 0.02,-137.15 0.98,-133.14 458.79 80
10 08/14/2020 15:26:57 -0.01,-137.14 0.87,-140.95 434.66 80
